Year,Month,Day,Hour,Minute,Value (Times are PST for temperature in C)
2007,08,04,00,00,15.30
2007,08,04,00,01,15.30
2007,08,04,00,02,15.30
2007,08,04,00,03,15.20
2007,08,04,00,04,15.20
2007,08,04,00,05,15.20
2007,08,04,00,06,15.20
2007,08,04,00,07,15.20
2007,08,04,00,08,15.20
2007,08,04,00,09,15.20
2007,08,04,00,10,15.20
2007,08,04,00,11,15.20
2007,08,04,00,12,15.20
2007,08,04,00,13,15.20
2007,08,04,00,14,15.10
2007,08,04,00,15,15.10
2007,08,04,00,16,15.10
2007,08,04,00,17,15.10
2007,08,04,00,18,15.00
2007,08,04,00,19,15.00
2007,08,04,00,20,15.00
2007,08,04,00,21,15.00
2007,08,04,00,22,15.00
2007,08,04,00,23,15.00
2007,08,04,00,24,15.00
2007,08,04,00,25,15.00
2007,08,04,00,26,15.00
2007,08,04,00,27,15.00
2007,08,04,00,28,15.00
2007,08,04,00,29,15.00
2007,08,04,00,30,15.00
2007,08,04,00,31,15.00
2007,08,04,00,32,15.00
2007,08,04,00,33,15.00
2007,08,04,00,34,15.00
2007,08,04,00,35,15.00
2007,08,04,00,36,15.00
2007,08,04,00,37,14.90
2007,08,04,00,38,14.90
2007,08,04,00,39,14.80
2007,08,04,00,40,14.80
2007,08,04,00,41,14.80
2007,08,04,00,42,14.80
2007,08,04,00,43,14.70
2007,08,04,00,44,14.70
2007,08,04,00,45,14.70
2007,08,04,00,46,14.70
2007,08,04,00,47,14.60
2007,08,04,00,48,14.60
2007,08,04,00,49,14.60
2007,08,04,00,50,14.60
2007,08,04,00,51,14.60
2007,08,04,00,52,14.50
2007,08,04,00,53,14.50
2007,08,04,00,54,14.50
2007,08,04,00,55,14.40
2007,08,04,00,56,14.40
2007,08,04,00,57,14.40
2007,08,04,00,58,14.40
2007,08,04,00,59,14.40
2007,08,04,01,00,14.40
2007,08,04,01,01,14.40
2007,08,04,01,02,14.30
2007,08,04,01,03,14.30
2007,08,04,01,04,14.30
2007,08,04,01,05,14.30
2007,08,04,01,06,14.20
2007,08,04,01,07,14.20
2007,08,04,01,08,14.20
2007,08,04,01,09,14.30
2007,08,04,01,10,14.20
2007,08,04,01,11,14.20
2007,08,04,01,12,14.20
2007,08,04,01,13,14.20
2007,08,04,01,14,14.20
2007,08,04,01,15,14.20
2007,08,04,01,16,14.20
2007,08,04,01,17,14.20
2007,08,04,01,18,14.20
2007,08,04,01,19,14.20
2007,08,04,01,20,14.20
2007,08,04,01,21,14.20
2007,08,04,01,22,14.20
2007,08,04,01,23,14.20
2007,08,04,01,24,14.20
2007,08,04,01,25,14.20
2007,08,04,01,26,14.20
2007,08,04,01,27,14.20
2007,08,04,01,28,14.10
2007,08,04,01,29,14.10
2007,08,04,01,30,14.10
2007,08,04,01,31,14.10
2007,08,04,01,32,14.00
2007,08,04,01,33,14.00
2007,08,04,01,34,14.00
2007,08,04,01,35,13.90
2007,08,04,01,36,13.90
2007,08,04,01,37,13.90
2007,08,04,01,38,13.90
2007,08,04,01,39,14.00
2007,08,04,01,40,14.00
2007,08,04,01,41,13.90
2007,08,04,01,42,13.90
2007,08,04,01,43,13.90
2007,08,04,01,44,13.90
2007,08,04,01,45,13.90
2007,08,04,01,46,13.90
2007,08,04,01,47,13.80
2007,08,04,01,48,13.80
2007,08,04,01,49,13.80
2007,08,04,01,50,13.70
2007,08,04,01,51,13.70
2007,08,04,01,52,13.70
2007,08,04,01,53,13.60
2007,08,04,01,54,13.60
2007,08,04,01,55,13.60
2007,08,04,01,56,13.60
2007,08,04,01,57,13.60
2007,08,04,01,58,13.60
2007,08,04,01,59,13.60
2007,08,04,02,00,13.60
2007,08,04,02,01,13.60
2007,08,04,02,02,13.60
2007,08,04,02,03,13.60
2007,08,04,02,04,13.60
2007,08,04,02,05,13.60
2007,08,04,02,06,13.60
2007,08,04,02,07,13.50
2007,08,04,02,08,13.50
2007,08,04,02,09,13.50
2007,08,04,02,10,13.50
2007,08,04,02,11,13.40
2007,08,04,02,12,13.40
2007,08,04,02,13,13.40
2007,08,04,02,14,13.40
2007,08,04,02,15,13.30
2007,08,04,02,16,13.30
2007,08,04,02,17,13.30
2007,08,04,02,18,13.30
2007,08,04,02,19,13.20
2007,08,04,02,20,13.20
2007,08,04,02,21,13.20
2007,08,04,02,22,13.20
2007,08,04,02,23,13.20
2007,08,04,02,24,13.20
2007,08,04,02,25,13.20
2007,08,04,02,26,13.20
2007,08,04,02,27,13.20
2007,08,04,02,28,13.20
2007,08,04,02,29,13.10
2007,08,04,02,30,13.20
2007,08,04,02,31,13.20
2007,08,04,02,32,13.20
2007,08,04,02,33,13.20
2007,08,04,02,34,13.20
2007,08,04,02,35,13.20
2007,08,04,02,36,13.20
2007,08,04,02,37,13.20
2007,08,04,02,38,13.20
2007,08,04,02,39,13.20
2007,08,04,02,40,13.20
2007,08,04,02,41,13.20
2007,08,04,02,42,13.30
2007,08,04,02,43,13.30
2007,08,04,02,44,13.30
2007,08,04,02,45,13.30
2007,08,04,02,46,13.30
2007,08,04,02,47,13.30
2007,08,04,02,48,13.30
2007,08,04,02,49,13.30
2007,08,04,02,50,13.30
2007,08,04,02,51,13.30
2007,08,04,02,52,13.30
2007,08,04,02,53,13.40
2007,08,04,02,54,13.40
2007,08,04,02,55,13.50
2007,08,04,02,56,13.50
2007,08,04,02,57,13.60
2007,08,04,02,58,13.60
2007,08,04,02,59,13.60
2007,08,04,03,00,13.60
2007,08,04,03,01,13.70
2007,08,04,03,02,13.60
2007,08,04,03,03,13.60
2007,08,04,03,04,13.60
2007,08,04,03,05,13.50
2007,08,04,03,06,13.50
2007,08,04,03,07,13.40
2007,08,04,03,08,13.40
2007,08,04,03,09,13.40
2007,08,04,03,10,13.40
2007,08,04,03,11,13.30
2007,08,04,03,12,13.30
2007,08,04,03,13,13.40
2007,08,04,03,14,13.40
2007,08,04,03,15,13.40
2007,08,04,03,16,13.40
2007,08,04,03,17,13.40
2007,08,04,03,18,13.40
2007,08,04,03,19,13.50
2007,08,04,03,20,13.50
2007,08,04,03,21,13.60
2007,08,04,03,22,13.60
2007,08,04,03,23,13.60
2007,08,04,03,24,13.60
2007,08,04,03,25,13.70
2007,08,04,03,26,13.70
2007,08,04,03,27,13.70
2007,08,04,03,28,13.70
2007,08,04,03,29,13.70
2007,08,04,03,30,13.70
2007,08,04,03,31,13.70
2007,08,04,03,32,13.70
2007,08,04,03,33,13.70
2007,08,04,03,34,13.70
2007,08,04,03,35,13.70
2007,08,04,03,36,13.70
2007,08,04,03,37,13.70
2007,08,04,03,38,13.80
2007,08,04,03,39,13.80
2007,08,04,03,40,13.80
2007,08,04,03,41,13.80
2007,08,04,03,42,13.80
2007,08,04,03,43,13.80
2007,08,04,03,44,13.90
2007,08,04,03,45,13.90
2007,08,04,03,46,13.90
2007,08,04,03,47,13.90
2007,08,04,03,48,13.90
2007,08,04,03,49,13.80
2007,08,04,03,50,13.80
2007,08,04,03,51,13.80
2007,08,04,03,52,13.80
2007,08,04,03,53,13.80
2007,08,04,03,54,13.70
2007,08,04,03,55,13.70
2007,08,04,03,56,13.70
2007,08,04,03,57,13.70
2007,08,04,03,58,13.70
2007,08,04,03,59,13.70
2007,08,04,04,00,13.70
2007,08,04,04,01,13.70
2007,08,04,04,02,13.70
2007,08,04,04,03,13.70
2007,08,04,04,04,13.80
2007,08,04,04,05,13.80
2007,08,04,04,06,13.80
2007,08,04,04,07,13.90
2007,08,04,04,08,13.90
2007,08,04,04,09,13.90
2007,08,04,04,10,14.00
2007,08,04,04,11,14.00
2007,08,04,04,12,14.00
2007,08,04,04,13,14.10
2007,08,04,04,14,14.10
2007,08,04,04,15,14.20
2007,08,04,04,16,14.20
2007,08,04,04,17,14.20
2007,08,04,04,18,14.20
2007,08,04,04,19,14.20
2007,08,04,04,20,14.30
2007,08,04,04,21,14.30
2007,08,04,04,22,14.30
2007,08,04,04,23,14.30
2007,08,04,04,24,14.30
2007,08,04,04,25,14.30
2007,08,04,04,26,14.30
2007,08,04,04,27,14.30
2007,08,04,04,28,14.40
2007,08,04,04,29,14.40
2007,08,04,04,30,14.40
2007,08,04,04,31,14.40
2007,08,04,04,32,14.40
2007,08,04,04,33,14.40
2007,08,04,04,34,14.30
2007,08,04,04,35,14.30
2007,08,04,04,36,14.30
2007,08,04,04,37,14.30
2007,08,04,04,38,14.30
2007,08,04,04,39,14.20
2007,08,04,04,40,14.20
2007,08,04,04,41,14.20
2007,08,04,04,42,14.20
2007,08,04,04,43,14.20
2007,08,04,04,44,14.20
2007,08,04,04,45,14.20
2007,08,04,04,46,14.20
2007,08,04,04,47,14.10
2007,08,04,04,48,14.10
2007,08,04,04,49,14.10
2007,08,04,04,50,14.10
2007,08,04,04,51,14.10
2007,08,04,04,52,14.10
2007,08,04,04,53,14.10
2007,08,04,04,54,14.20
2007,08,04,04,55,14.20
2007,08,04,04,56,14.20
2007,08,04,04,57,14.20
2007,08,04,04,58,14.20
2007,08,04,04,59,14.20
2007,08,04,05,00,14.20
2007,08,04,05,01,14.20
2007,08,04,05,02,14.20
2007,08,04,05,03,14.20
2007,08,04,05,04,14.20
2007,08,04,05,05,14.20
2007,08,04,05,06,14.20
2007,08,04,05,07,14.20
2007,08,04,05,08,14.20
2007,08,04,05,09,14.30
2007,08,04,05,10,14.30
2007,08,04,05,11,14.20
2007,08,04,05,12,14.20
2007,08,04,05,13,14.20
2007,08,04,05,14,14.20
2007,08,04,05,15,14.20
2007,08,04,05,16,14.20
2007,08,04,05,17,14.20
2007,08,04,05,18,14.20
2007,08,04,05,19,14.20
2007,08,04,05,20,14.20
2007,08,04,05,21,14.20
2007,08,04,05,22,14.20
2007,08,04,05,23,14.20
2007,08,04,05,24,14.20
2007,08,04,05,25,14.10
2007,08,04,05,26,14.10
2007,08,04,05,27,14.10
2007,08,04,05,28,14.10
2007,08,04,05,29,14.00
2007,08,04,05,30,14.00
2007,08,04,05,31,13.90
2007,08,04,05,32,14.00
2007,08,04,05,33,14.10
2007,08,04,05,34,14.10
2007,08,04,05,35,14.10
2007,08,04,05,36,14.20
2007,08,04,05,37,14.20
2007,08,04,05,38,14.20
2007,08,04,05,39,14.20
2007,08,04,05,40,14.20
2007,08,04,05,41,14.20
2007,08,04,05,42,14.20
2007,08,04,05,43,14.10
2007,08,04,05,44,14.10
2007,08,04,05,45,14.10
2007,08,04,05,46,14.10
2007,08,04,05,47,14.00
2007,08,04,05,48,14.00
2007,08,04,05,49,13.90
2007,08,04,05,50,13.90
2007,08,04,05,51,13.90
2007,08,04,05,52,13.90
2007,08,04,05,53,13.90
2007,08,04,05,54,13.90
2007,08,04,05,55,13.80
2007,08,04,05,56,13.80
2007,08,04,05,57,13.80
2007,08,04,05,58,13.80
2007,08,04,05,59,13.80
2007,08,04,06,00,13.80
2007,08,04,06,01,13.80
2007,08,04,06,02,13.70
2007,08,04,06,03,13.70
2007,08,04,06,04,13.80
2007,08,04,06,05,13.70
2007,08,04,06,06,13.70
2007,08,04,06,07,13.70
2007,08,04,06,08,13.70
2007,08,04,06,09,13.60
2007,08,04,06,10,13.60
2007,08,04,06,11,13.60
2007,08,04,06,12,13.60
2007,08,04,06,13,13.60
2007,08,04,06,14,13.50
2007,08,04,06,15,13.50
2007,08,04,06,16,13.60
2007,08,04,06,17,13.70
2007,08,04,06,18,13.80
2007,08,04,06,19,13.90
2007,08,04,06,20,13.90
2007,08,04,06,21,13.90
2007,08,04,06,22,14.00
2007,08,04,06,23,14.00
2007,08,04,06,24,14.00
2007,08,04,06,25,14.10
2007,08,04,06,26,14.10
2007,08,04,06,27,14.10
2007,08,04,06,28,14.10
2007,08,04,06,29,14.10
2007,08,04,06,30,14.10
2007,08,04,06,31,14.10
2007,08,04,06,32,14.10
2007,08,04,06,33,14.10
2007,08,04,06,34,14.10
2007,08,04,06,35,14.10
2007,08,04,06,36,14.10
2007,08,04,06,37,14.10
2007,08,04,06,38,14.10
2007,08,04,06,39,14.10
2007,08,04,06,40,14.10
2007,08,04,06,41,14.10
2007,08,04,06,42,14.10
2007,08,04,06,43,14.10
2007,08,04,06,44,14.10
2007,08,04,06,45,14.10
2007,08,04,06,46,14.20
2007,08,04,06,47,14.20
2007,08,04,06,48,14.20
2007,08,04,06,49,14.20
2007,08,04,06,50,14.30
2007,08,04,06,51,14.30
2007,08,04,06,52,14.30
2007,08,04,06,53,14.30
2007,08,04,06,54,14.30
2007,08,04,06,55,14.40
2007,08,04,06,56,14.40
2007,08,04,06,57,14.40
2007,08,04,06,58,14.50
2007,08,04,06,59,14.60
2007,08,04,07,00,14.60
2007,08,04,07,01,14.60
2007,08,04,07,02,14.70
2007,08,04,07,03,14.70
2007,08,04,07,04,14.80
2007,08,04,07,05,14.80
2007,08,04,07,06,14.80
2007,08,04,07,07,14.80
2007,08,04,07,08,14.80
2007,08,04,07,09,14.90
2007,08,04,07,10,14.90
2007,08,04,07,11,15.00
2007,08,04,07,12,15.00
2007,08,04,07,13,15.00
2007,08,04,07,14,15.00
2007,08,04,07,15,15.00
2007,08,04,07,16,15.00
2007,08,04,07,17,15.00
2007,08,04,07,18,15.00
2007,08,04,07,19,15.00
2007,08,04,07,20,15.00
2007,08,04,07,21,15.10
2007,08,04,07,22,15.10
2007,08,04,07,23,15.20
2007,08,04,07,24,15.20
2007,08,04,07,25,15.20
2007,08,04,07,26,15.30
2007,08,04,07,27,15.30
2007,08,04,07,28,15.30
2007,08,04,07,29,15.40
2007,08,04,07,30,15.40
2007,08,04,07,31,15.40
2007,08,04,07,32,15.40
2007,08,04,07,33,15.30
2007,08,04,07,34,15.30
2007,08,04,07,35,15.30
2007,08,04,07,36,15.30
2007,08,04,07,37,15.40
2007,08,04,07,38,15.40
2007,08,04,07,39,15.40
2007,08,04,07,40,15.40
2007,08,04,07,41,15.40
2007,08,04,07,42,15.40
2007,08,04,07,43,15.40
2007,08,04,07,44,15.50
2007,08,04,07,45,15.50
2007,08,04,07,46,15.60
2007,08,04,07,47,15.60
2007,08,04,07,48,15.60
2007,08,04,07,49,15.60
2007,08,04,07,50,15.60
2007,08,04,07,51,15.70
2007,08,04,07,52,15.70
2007,08,04,07,53,15.70
2007,08,04,07,54,15.70
2007,08,04,07,55,15.80
2007,08,04,07,56,15.80
2007,08,04,07,57,15.80
2007,08,04,07,58,15.80
2007,08,04,07,59,15.80
2007,08,04,08,00,15.90
2007,08,04,08,01,15.90
2007,08,04,08,02,15.90
2007,08,04,08,03,15.90
2007,08,04,08,04,15.90
2007,08,04,08,05,15.90
2007,08,04,08,06,16.00
2007,08,04,08,07,16.00
2007,08,04,08,08,16.10
2007,08,04,08,09,16.10
2007,08,04,08,10,16.20
2007,08,04,08,11,16.20
2007,08,04,08,12,16.30
2007,08,04,08,13,16.30
2007,08,04,08,14,16.30
2007,08,04,08,15,16.30
2007,08,04,08,16,16.30
2007,08,04,08,17,16.30
2007,08,04,08,18,16.30
2007,08,04,08,19,16.30
2007,08,04,08,20,16.30
2007,08,04,08,21,16.40
2007,08,04,08,22,16.40
2007,08,04,08,23,16.40
2007,08,04,08,24,16.50
2007,08,04,08,25,16.50
2007,08,04,08,26,16.60
2007,08,04,08,27,16.60
2007,08,04,08,28,16.60
2007,08,04,08,29,16.60
2007,08,04,08,30,16.60
2007,08,04,08,31,16.60
2007,08,04,08,32,16.60
2007,08,04,08,33,16.70
2007,08,04,08,34,16.70
2007,08,04,08,35,16.80
2007,08,04,08,36,16.80
2007,08,04,08,37,16.80
2007,08,04,08,38,16.90
2007,08,04,08,39,16.90
2007,08,04,08,40,17.00
2007,08,04,08,41,17.00
2007,08,04,08,42,17.10
2007,08,04,08,43,17.10
2007,08,04,08,44,17.10
2007,08,04,08,45,17.20
2007,08,04,08,46,17.20
2007,08,04,08,47,17.20
2007,08,04,08,48,17.20
2007,08,04,08,49,17.20
2007,08,04,08,50,17.20
2007,08,04,08,51,17.20
2007,08,04,08,52,17.20
2007,08,04,08,53,17.30
2007,08,04,08,54,17.30
2007,08,04,08,55,17.30
2007,08,04,08,56,17.30
2007,08,04,08,57,17.30
2007,08,04,08,58,17.30
2007,08,04,08,59,17.40
2007,08,04,09,00,17.40
2007,08,04,09,01,17.40
2007,08,04,09,02,17.40
2007,08,04,09,03,17.40
2007,08,04,09,04,17.30
2007,08,04,09,05,17.30
2007,08,04,09,06,17.30
2007,08,04,09,07,17.30
2007,08,04,09,08,17.30
2007,08,04,09,09,17.40
2007,08,04,09,10,17.40
2007,08,04,09,11,17.30
2007,08,04,09,12,17.30
2007,08,04,09,13,17.40
2007,08,04,09,14,17.40
2007,08,04,09,15,17.40
2007,08,04,09,16,17.40
2007,08,04,09,17,17.50
2007,08,04,09,18,17.60
2007,08,04,09,19,17.60
2007,08,04,09,20,17.70
2007,08,04,09,21,17.70
2007,08,04,09,22,17.70
2007,08,04,09,23,17.70
2007,08,04,09,24,17.70
2007,08,04,09,25,17.70
2007,08,04,09,26,17.60
2007,08,04,09,27,17.60
2007,08,04,09,28,17.60
2007,08,04,09,29,17.50
2007,08,04,09,30,17.60
2007,08,04,09,31,17.60
2007,08,04,09,32,17.60
2007,08,04,09,33,17.50
2007,08,04,09,34,17.50
2007,08,04,09,35,17.60
2007,08,04,09,36,17.60
2007,08,04,09,37,17.60
2007,08,04,09,38,17.60
2007,08,04,09,39,17.70
2007,08,04,09,40,17.70
2007,08,04,09,41,17.70
2007,08,04,09,42,17.60
2007,08,04,09,43,17.60
2007,08,04,09,44,17.60
2007,08,04,09,45,17.60
2007,08,04,09,46,17.70
2007,08,04,09,47,17.70
2007,08,04,09,48,17.80
2007,08,04,09,49,17.80
2007,08,04,09,50,17.80
2007,08,04,09,51,17.90
2007,08,04,09,52,18.00
2007,08,04,09,53,18.00
2007,08,04,09,54,18.00
2007,08,04,09,55,18.10
2007,08,04,09,56,18.10
2007,08,04,09,57,18.10
2007,08,04,09,58,18.00
2007,08,04,09,59,17.90
2007,08,04,10,00,17.90
2007,08,04,10,01,17.90
2007,08,04,10,02,17.90
2007,08,04,10,03,17.80
2007,08,04,10,04,17.70
2007,08,04,10,05,17.70
2007,08,04,10,06,17.80
2007,08,04,10,07,17.90
2007,08,04,10,08,18.00
2007,08,04,10,09,18.20
2007,08,04,10,10,18.20
2007,08,04,10,11,18.20
2007,08,04,10,12,18.20
2007,08,04,10,13,18.20
2007,08,04,10,14,18.20
2007,08,04,10,15,18.10
2007,08,04,10,16,18.00
2007,08,04,10,17,17.90
2007,08,04,10,18,17.90
2007,08,04,10,19,17.90
2007,08,04,10,20,17.90
2007,08,04,10,21,18.00
2007,08,04,10,22,18.00
2007,08,04,10,23,18.10
2007,08,04,10,24,18.20
2007,08,04,10,25,18.20
2007,08,04,10,26,18.30
2007,08,04,10,27,18.40
2007,08,04,10,28,18.40
2007,08,04,10,29,18.40
2007,08,04,10,30,18.30
2007,08,04,10,31,18.30
2007,08,04,10,32,18.20
2007,08,04,10,33,18.20
2007,08,04,10,34,18.10
2007,08,04,10,35,18.10
2007,08,04,10,36,18.10
2007,08,04,10,37,18.20
2007,08,04,10,38,18.20
2007,08,04,10,39,18.20
2007,08,04,10,40,18.20
2007,08,04,10,41,18.20
2007,08,04,10,42,18.20
2007,08,04,10,43,18.20
2007,08,04,10,44,18.20
2007,08,04,10,45,18.30
2007,08,04,10,46,18.30
2007,08,04,10,47,18.30
2007,08,04,10,48,18.30
2007,08,04,10,49,18.20
2007,08,04,10,50,18.10
2007,08,04,10,51,18.10
2007,08,04,10,52,18.20
2007,08,04,10,53,18.10
2007,08,04,10,54,18.10
2007,08,04,10,55,18.00
2007,08,04,10,56,18.00
2007,08,04,10,57,18.10
2007,08,04,10,58,18.20
2007,08,04,10,59,18.20
2007,08,04,11,00,18.20
2007,08,04,11,01,18.20
2007,08,04,11,02,18.20
2007,08,04,11,03,18.20
2007,08,04,11,04,18.20
2007,08,04,11,05,18.10
2007,08,04,11,06,18.00
2007,08,04,11,07,18.00
2007,08,04,11,08,18.00
2007,08,04,11,09,18.10
2007,08,04,11,10,18.10
2007,08,04,11,11,18.10
2007,08,04,11,12,18.10
2007,08,04,11,13,18.10
2007,08,04,11,14,18.20
2007,08,04,11,15,18.20
2007,08,04,11,16,18.30
2007,08,04,11,17,18.30
2007,08,04,11,18,18.40
2007,08,04,11,19,18.40
2007,08,04,11,20,18.40
2007,08,04,11,21,18.40
2007,08,04,11,22,18.40
2007,08,04,11,23,18.40
2007,08,04,11,24,18.40
2007,08,04,11,25,18.40
2007,08,04,11,26,18.40
2007,08,04,11,27,18.40
2007,08,04,11,28,18.40
2007,08,04,11,29,18.50
2007,08,04,11,30,18.50
2007,08,04,11,31,18.50
2007,08,04,11,32,18.50
2007,08,04,11,33,18.40
2007,08,04,11,34,18.40
2007,08,04,11,35,18.50
2007,08,04,11,36,18.60
2007,08,04,11,37,18.60
2007,08,04,11,38,18.60
2007,08,04,11,39,18.70
2007,08,04,11,40,18.60
2007,08,04,11,41,18.60
2007,08,04,11,42,18.50
2007,08,04,11,43,18.50
2007,08,04,11,44,18.40
2007,08,04,11,45,18.30
2007,08,04,11,46,18.30
2007,08,04,11,47,18.30
2007,08,04,11,48,18.30
2007,08,04,11,49,18.40
2007,08,04,11,50,18.40
2007,08,04,11,51,18.40
2007,08,04,11,52,18.50
2007,08,04,11,53,18.40
2007,08,04,11,54,18.30
2007,08,04,11,55,18.30
2007,08,04,11,56,18.30
2007,08,04,11,57,18.30
2007,08,04,11,58,18.40
2007,08,04,11,59,18.40
2007,08,04,12,00,18.40
2007,08,04,12,01,18.40
2007,08,04,12,02,18.40
2007,08,04,12,03,18.30
2007,08,04,12,04,18.30
2007,08,04,12,05,18.30
2007,08,04,12,06,18.30
2007,08,04,12,07,18.30
2007,08,04,12,08,18.30
2007,08,04,12,09,18.30
2007,08,04,12,10,18.20
2007,08,04,12,11,18.30
2007,08,04,12,12,18.30
2007,08,04,12,13,18.50
2007,08,04,12,14,18.60
2007,08,04,12,15,18.80
2007,08,04,12,16,18.90
2007,08,04,12,17,18.90
2007,08,04,12,18,18.90
2007,08,04,12,19,18.90
2007,08,04,12,20,18.90
2007,08,04,12,21,18.80
2007,08,04,12,22,18.70
2007,08,04,12,23,18.70
2007,08,04,12,24,18.70
2007,08,04,12,25,18.70
2007,08,04,12,26,18.70
2007,08,04,12,27,18.70
2007,08,04,12,28,18.70
2007,08,04,12,29,18.70
2007,08,04,12,30,18.80
2007,08,04,12,31,18.80
2007,08,04,12,32,18.70
2007,08,04,12,33,18.70
2007,08,04,12,34,18.70
2007,08,04,12,35,18.70
2007,08,04,12,36,18.80
2007,08,04,12,37,18.80
2007,08,04,12,38,18.90
2007,08,04,12,39,19.00
2007,08,04,12,40,19.00
2007,08,04,12,41,19.00
2007,08,04,12,42,18.90
2007,08,04,12,43,18.80
2007,08,04,12,44,18.80
2007,08,04,12,45,18.80
2007,08,04,12,46,18.80
2007,08,04,12,47,18.80
2007,08,04,12,48,18.80
2007,08,04,12,49,18.80
2007,08,04,12,50,18.90
2007,08,04,12,51,18.90
2007,08,04,12,52,19.00
2007,08,04,12,53,19.00
2007,08,04,12,54,19.10
2007,08,04,12,55,19.00
2007,08,04,12,56,19.00
2007,08,04,12,57,18.90
2007,08,04,12,58,18.90
2007,08,04,12,59,19.00
2007,08,04,13,00,19.00
2007,08,04,13,01,19.00
2007,08,04,13,02,19.00
2007,08,04,13,03,19.10
2007,08,04,13,04,19.10
2007,08,04,13,05,19.10
2007,08,04,13,06,19.00
2007,08,04,13,07,19.00
2007,08,04,13,08,19.00
2007,08,04,13,09,19.00
2007,08,04,13,10,19.00
2007,08,04,13,11,18.90
2007,08,04,13,12,18.90
2007,08,04,13,13,18.90
2007,08,04,13,14,18.90
2007,08,04,13,15,18.90
2007,08,04,13,16,19.00
2007,08,04,13,17,19.00
2007,08,04,13,18,19.00
2007,08,04,13,19,18.90
2007,08,04,13,20,18.90
2007,08,04,13,21,18.90
2007,08,04,13,22,18.90
2007,08,04,13,23,18.80
2007,08,04,13,24,18.90
2007,08,04,13,25,18.90
2007,08,04,13,26,18.90
2007,08,04,13,27,19.00
2007,08,04,13,28,19.00
2007,08,04,13,29,19.10
2007,08,04,13,30,19.10
2007,08,04,13,31,19.10
2007,08,04,13,32,19.10
2007,08,04,13,33,19.10
2007,08,04,13,34,19.10
2007,08,04,13,35,19.20
2007,08,04,13,36,19.20
2007,08,04,13,37,19.20
2007,08,04,13,38,19.20
2007,08,04,13,39,19.20
2007,08,04,13,40,19.10
2007,08,04,13,41,19.10
2007,08,04,13,42,19.10
2007,08,04,13,43,19.20
2007,08,04,13,44,19.20
2007,08,04,13,45,19.20
2007,08,04,13,46,19.20
2007,08,04,13,47,19.10
2007,08,04,13,48,19.20
2007,08,04,13,49,19.20
2007,08,04,13,50,19.20
2007,08,04,13,51,19.20
2007,08,04,13,52,19.30
2007,08,04,13,53,19.30
2007,08,04,13,54,19.40
2007,08,04,13,55,19.40
2007,08,04,13,56,19.40
2007,08,04,13,57,19.40
2007,08,04,13,58,19.40
2007,08,04,13,59,19.40
2007,08,04,14,00,19.40
2007,08,04,14,01,19.50
2007,08,04,14,02,19.60
2007,08,04,14,03,19.70
2007,08,04,14,04,19.70
2007,08,04,14,05,19.70
2007,08,04,14,06,19.70
2007,08,04,14,07,19.60
2007,08,04,14,08,19.60
2007,08,04,14,09,19.60
2007,08,04,14,10,19.70
2007,08,04,14,11,19.70
2007,08,04,14,12,19.70
2007,08,04,14,13,19.70
2007,08,04,14,14,19.60
2007,08,04,14,15,19.60
2007,08,04,14,16,19.60
2007,08,04,14,17,19.60
2007,08,04,14,18,19.70
2007,08,04,14,19,19.70
2007,08,04,14,20,19.70
2007,08,04,14,21,19.70
2007,08,04,14,22,19.70
2007,08,04,14,23,19.60
2007,08,04,14,24,19.60
2007,08,04,14,25,19.60
2007,08,04,14,26,19.70
2007,08,04,14,27,19.80
2007,08,04,14,28,19.80
2007,08,04,14,29,19.80
2007,08,04,14,30,19.80
2007,08,04,14,31,19.80
2007,08,04,14,32,19.90
2007,08,04,14,33,19.90
2007,08,04,14,34,19.90
2007,08,04,14,35,20.00
2007,08,04,14,36,20.10
2007,08,04,14,37,20.10
2007,08,04,14,38,20.20
2007,08,04,14,39,20.20
2007,08,04,14,40,20.30
2007,08,04,14,41,20.30
2007,08,04,14,42,20.50
2007,08,04,14,43,20.50
2007,08,04,14,44,20.40
2007,08,04,14,45,20.40
2007,08,04,14,46,20.40
2007,08,04,14,47,20.30
2007,08,04,14,48,20.20
2007,08,04,14,49,20.20
2007,08,04,14,50,20.20
2007,08,04,14,51,20.30
2007,08,04,14,52,20.30
2007,08,04,14,53,20.20
2007,08,04,14,54,20.20
2007,08,04,14,55,20.20
2007,08,04,14,56,20.20
2007,08,04,14,57,20.20
2007,08,04,14,58,20.20
2007,08,04,14,59,20.20
2007,08,04,15,00,20.30
2007,08,04,15,01,20.30
2007,08,04,15,02,20.30
2007,08,04,15,03,20.40
2007,08,04,15,04,20.40
2007,08,04,15,05,20.50
2007,08,04,15,06,20.50
2007,08,04,15,07,20.60
2007,08,04,15,08,20.70
2007,08,04,15,09,20.70
2007,08,04,15,10,20.70
2007,08,04,15,11,20.70
2007,08,04,15,12,20.70
2007,08,04,15,13,20.60
2007,08,04,15,14,20.60
2007,08,04,15,15,20.60
2007,08,04,15,16,20.50
2007,08,04,15,17,20.60
2007,08,04,15,18,20.60
2007,08,04,15,19,20.70
2007,08,04,15,20,20.70
2007,08,04,15,21,20.80
2007,08,04,15,22,20.90
2007,08,04,15,23,20.80
2007,08,04,15,24,20.90
2007,08,04,15,25,20.90
2007,08,04,15,26,20.80
2007,08,04,15,27,20.80
2007,08,04,15,28,20.90
2007,08,04,15,29,21.00
2007,08,04,15,30,21.10
2007,08,04,15,31,21.10
2007,08,04,15,32,21.00
2007,08,04,15,33,21.00
2007,08,04,15,34,20.90
2007,08,04,15,35,20.80
2007,08,04,15,36,20.80
2007,08,04,15,37,20.90
2007,08,04,15,38,21.00
2007,08,04,15,39,21.10
2007,08,04,15,40,21.00
2007,08,04,15,41,21.00
2007,08,04,15,42,20.90
2007,08,04,15,43,20.90
2007,08,04,15,44,20.80
2007,08,04,15,45,20.80
2007,08,04,15,46,20.70
2007,08,04,15,47,20.70
2007,08,04,15,48,20.70
2007,08,04,15,49,20.70
2007,08,04,15,50,20.80
2007,08,04,15,51,20.80
2007,08,04,15,52,20.90
2007,08,04,15,53,21.00
2007,08,04,15,54,21.20
2007,08,04,15,55,21.30
2007,08,04,15,56,21.30
2007,08,04,15,57,21.20
2007,08,04,15,58,21.20
2007,08,04,15,59,21.20
2007,08,04,16,00,21.20
2007,08,04,16,01,21.20
2007,08,04,16,02,21.20
2007,08,04,16,03,21.20
2007,08,04,16,04,21.30
2007,08,04,16,05,21.40
2007,08,04,16,06,21.40
2007,08,04,16,07,21.40
2007,08,04,16,08,21.50
2007,08,04,16,09,21.60
2007,08,04,16,10,21.70
2007,08,04,16,11,21.70
2007,08,04,16,12,21.70
2007,08,04,16,13,21.80
2007,08,04,16,14,21.70
2007,08,04,16,15,21.70
2007,08,04,16,16,21.70
2007,08,04,16,17,21.70
2007,08,04,16,18,21.70
2007,08,04,16,19,21.70
2007,08,04,16,20,21.70
2007,08,04,16,21,21.80
2007,08,04,16,22,21.80
2007,08,04,16,23,21.70
2007,08,04,16,24,21.60
2007,08,04,16,25,21.50
2007,08,04,16,26,21.40
2007,08,04,16,27,21.40
2007,08,04,16,28,21.40
2007,08,04,16,29,21.40
2007,08,04,16,30,21.40
2007,08,04,16,31,21.30
2007,08,04,16,32,21.30
2007,08,04,16,33,21.30
2007,08,04,16,34,21.30
2007,08,04,16,35,21.30
2007,08,04,16,36,21.30
2007,08,04,16,37,21.30
2007,08,04,16,38,21.40
2007,08,04,16,39,21.40
2007,08,04,16,40,21.50
2007,08,04,16,41,21.50
2007,08,04,16,42,21.40
2007,08,04,16,43,21.40
2007,08,04,16,44,21.40
2007,08,04,16,45,21.50
2007,08,04,16,46,21.50
2007,08,04,16,47,21.50
2007,08,04,16,48,21.50
2007,08,04,16,49,21.50
2007,08,04,16,50,21.50
2007,08,04,16,51,21.60
2007,08,04,16,52,21.60
2007,08,04,16,53,21.60
2007,08,04,16,54,21.60
2007,08,04,16,55,21.60
2007,08,04,16,56,21.70
2007,08,04,16,57,21.80
2007,08,04,16,58,21.80
2007,08,04,16,59,21.90
2007,08,04,17,00,21.90
2007,08,04,17,01,21.90
2007,08,04,17,02,21.80
2007,08,04,17,03,21.80
2007,08,04,17,04,21.80
2007,08,04,17,05,21.80
2007,08,04,17,06,21.70
2007,08,04,17,07,21.70
2007,08,04,17,08,21.70
2007,08,04,17,09,21.70
2007,08,04,17,10,21.70
2007,08,04,17,11,21.80
2007,08,04,17,12,21.80
2007,08,04,17,13,21.80
2007,08,04,17,14,21.90
2007,08,04,17,15,21.90
2007,08,04,17,16,21.80
2007,08,04,17,17,21.80
2007,08,04,17,18,21.80
2007,08,04,17,19,21.70